• Em Portugal
  • Lista de países
  • Para 7 dias
  • Temperatura da água
  • Mapas de satélite
  • Mapa do tempo
  • Widgets de tempo
  • user-avatar
    Iniciar Sessão

    Previsão horária em Artashat

    Hoje, 23 Outubro, Terça-feira

    Tempo Temperatura Precipitação Vento Pressão Humidade
    00:00 +7°C° 0 mm 2 m/s 603 mmHg 67%
    01:00 +6°C° 0 mm 2 m/s 603 mmHg 68%
    02:00 +6°C° 0 mm 2 m/s 603 mmHg 69%
    03:00 +6°C° 0 mm 2 m/s 602 mmHg 71%
    04:00 +6°C° 0 mm 2 m/s 602 mmHg 72%
    05:00 +6°C° 0 mm 2 m/s 602 mmHg 72%
    06:00 +5°C° 0 mm 2 m/s 602 mmHg 73%
    07:00 +7°C° 0 mm 2 m/s 603 mmHg 66%
    08:00 +8°C° 0 mm 2 m/s 604 mmHg 60%
    09:00 +10°C° 0 mm 2 m/s 605 mmHg 53%
    10:00 +12°C° 0 mm 2 m/s 605 mmHg 49%
    11:00 +13°C° 0 mm 2 m/s 605 mmHg 44%
    12:00 +14°C° 0 mm 2 m/s 605 mmHg 40%
    13:00 +14°C° 0 mm 2 m/s 605 mmHg 39%
    14:00 +13°C° 0 mm 3 m/s 604 mmHg 38%
    15:00 +13°C° 0 mm 3 m/s 604 mmHg 38%
    16:00 +12°C° 0 mm 3 m/s 604 mmHg 42%
    17:00 +12°C° 0 mm 2 m/s 603 mmHg 46%
    18:00 +9°C° 0 mm 2 m/s 603 mmHg 50%
    19:00 +9°C° 0 mm 2 m/s 602 mmHg 53%
    20:00 +8°C° 0 mm 2 m/s 602 mmHg 55%
    21:00 +8°C° 0 mm 2 m/s 602 mmHg 58%
    22:00 +7°C° 0 mm 2 m/s 602 mmHg 60%
    23:00 +7°C° 0 mm 2 m/s 602 mmHg 62%

    Amanhã, 24 Outubro, Quarta-feira

    Tempo Temperatura Precipitação Vento Pressão Humidade
    00:00 +7°C° 0 mm 2 m/s 602 mmHg 63%
    01:00 +6°C° 0 mm 2 m/s 601 mmHg 65%
    02:00 +6°C° 0 mm 2 m/s 601 mmHg 66%
    03:00 +6°C° 0 mm 2 m/s 601 mmHg 67%
    04:00 +6°C° 0 mm 2 m/s 601 mmHg 67%
    05:00 +6°C° 0 mm 2 m/s 600 mmHg 67%
    06:00 +6°C° 0 mm 2 m/s 600 mmHg 67%
    07:00 +7°C° 0.1 mm 2 m/s 601 mmHg 63%
    08:00 +8°C° 0.1 mm 2 m/s 601 mmHg 58%
    09:00 +9°C° 0.1 mm 3 m/s 602 mmHg 54%
    10:00 +11°C° 0.1 mm 3 m/s 602 mmHg 49%
    11:00 +12°C° 0.1 mm 4 m/s 602 mmHg 45%
    12:00 +14°C° 0.1 mm 4 m/s 602 mmHg 40%
    13:00 +14°C° 0 mm 5 m/s 601 mmHg 40%
    14:00 +14°C° 0 mm 5 m/s 601 mmHg 40%
    15:00 +14°C° 0 mm 5 m/s 600 mmHg 40%
    16:00 +13°C° 0.1 mm 4 m/s 600 mmHg 45%
    17:00 +12°C° 0.1 mm 4 m/s 600 mmHg 49%
    18:00 +11°C° 0.1 mm 3 m/s 599 mmHg 54%
    19:00 +11°C° 0.1 mm 3 m/s 599 mmHg 57%
    20:00 +10°C° 0.1 mm 3 m/s 599 mmHg 60%
    21:00 +9°C° 0.1 mm 3 m/s 599 mmHg 63%
    22:00 +9°C° 0 mm 3 m/s 598 mmHg 65%
    23:00 +8°C° 0 mm 3 m/s 598 mmHg 67%

    Depois de amanhã, 25 Outubro, Quinta-feira

    Tempo Temperatura Precipitação Vento Pressão Humidade
    00:00 +8°C° 0 mm 2 m/s 598 mmHg 69%
    01:00 +8°C° 0 mm 3 m/s 597 mmHg 69%
    02:00 +7°C° 0 mm 3 m/s 597 mmHg 70%
    03:00 +7°C° 0 mm 3 m/s 597 mmHg 70%
    04:00 +7°C° 0 mm 3 m/s 596 mmHg 70%
    05:00 +7°C° 0 mm 3 m/s 596 mmHg 70%
    06:00 +5°C° 0 mm 3 m/s 595 mmHg 70%
    07:00 +7°C° 0 mm 4 m/s 596 mmHg 62%
    08:00 +9°C° 0 mm 5 m/s 597 mmHg 55%
    09:00 +11°C° 0 mm 6 m/s 597 mmHg 47%
    10:00 +12°C° 0 mm 8 m/s 597 mmHg 43%
    11:00 +15°C° 0 mm 9 m/s 597 mmHg 38%
    12:00 +16°C° 0 mm 11 m/s 596 mmHg 34%
    13:00 +16°C° 0.2 mm 11 m/s 596 mmHg 34%
    14:00 +16°C° 0.2 mm 11 m/s 596 mmHg 35%
    15:00 +16°C° 0.2 mm 11 m/s 596 mmHg 36%
    16:00 +13°C° 0.1 mm 9 m/s 595 mmHg 40%
    17:00 +12°C° 0.1 mm 7 m/s 595 mmHg 44%
    18:00 +12°C° 0.1 mm 5 m/s 594 mmHg 48%
    19:00 +10°C° 0 mm 5 m/s 594 mmHg 49%
    20:00 +10°C° 0 mm 5 m/s 594 mmHg 51%
    21:00 +10°C° 0 mm 4 m/s 594 mmHg 52%
    22:00 +10°C° 0.1 mm 4 m/s 594 mmHg 54%
    23:00 +8°C° 0.1 mm 4 m/s 594 mmHg 56%

    26 Outubro, Sexta-feira

    Tempo Temperatura Precipitação Vento Pressão Humidade
    00:00 +8°C° 0.1 mm 4 m/s 594 mmHg 58%
    01:00 +8°C° 0 mm 4 m/s 594 mmHg 62%
    02:00 +7°C° 0 mm 4 m/s 594 mmHg 65%
    03:00 +7°C° 0 mm 4 m/s 594 mmHg 68%
    04:00 +6°C° 0.1 mm 4 m/s 594 mmHg 70%
    05:00 +7°C° 0.1 mm 3 m/s 594 mmHg 73%
    06:00 +5°C° 0.1 mm 3 m/s 594 mmHg 75%
    07:00 +7°C° 0.5 mm 3 m/s 594 mmHg 71%
    08:00 +8°C° 0.5 mm 3 m/s 595 mmHg 67%
    09:00 +8°C° 0.5 mm 3 m/s 596 mmHg 63%
    10:00 +6°C° 1.5 mm 4 m/s 595 mmHg 64%
    11:00 +5°C° 1.5 mm 5 m/s 595 mmHg 65%
    12:00 +4°C° 1.5 mm 6 m/s 595 mmHg 65%
    13:00 +3°C° 1.2 mm 5 m/s 595 mmHg 65%
    14:00 +2°C° 1.2 mm 5 m/s 595 mmHg 66%
    15:00 +3°C° 1.2 mm 4 m/s 595 mmHg 66%
    16:00 +3°C° 0.6 mm 4 m/s 595 mmHg 67%
    17:00 +1°C° 0.6 mm 4 m/s 596 mmHg 67%
    18:00 +2°C° 0.6 mm 3 m/s 597 mmHg 68%
    19:00 +2°C° 0.1 mm 3 m/s 598 mmHg 68%
    20:00 +1°C° 0.1 mm 3 m/s 599 mmHg 67%
    21:00 +1°C° 0.1 mm 3 m/s 600 mmHg 67%
    22:00 0°C° 0 mm 3 m/s 600 mmHg 66%
    23:00 +1°C° 0 mm 2 m/s 600 mmHg 65%

    27 Outubro, Sábado

    Tempo Temperatura Precipitação Vento Pressão Humidade
    00:00 -1°C° 0 mm 2 m/s 601 mmHg 65%
    01:00 -1°C° 0 mm 2 m/s 601 mmHg 63%
    02:00 -1°C° 0 mm 2 m/s 602 mmHg 62%
    03:00 -2°C° 0 mm 2 m/s 602 mmHg 60%
    04:00 0°C° 0 mm 1 m/s 602 mmHg 59%
    05:00 0°C° 0 mm 1 m/s 602 mmHg 58%
    06:00 0°C° 0 mm 1 m/s 603 mmHg 56%
    07:00 +1°C° 0 mm 1 m/s 603 mmHg 53%
    08:00 +2°C° 0 mm 1 m/s 604 mmHg 49%
    09:00 +3°C° 0 mm 0 m/s 605 mmHg 45%
    10:00 +5°C° 0 mm 1 m/s 605 mmHg 44%
    11:00 +6°C° 0 mm 1 m/s 605 mmHg 42%
    12:00 +7°C° 0 mm 1 m/s 605 mmHg 41%
    13:00 +7°C° 0 mm 1 m/s 605 mmHg 40%
    14:00 +8°C° 0 mm 1 m/s 605 mmHg 39%
    15:00 +8°C° 0 mm 1 m/s 605 mmHg 38%
    16:00 +7°C° 0 mm 1 m/s 605 mmHg 41%
    17:00 +6°C° 0 mm 1 m/s 605 mmHg 44%
    18:00 +5°C° 0 mm 1 m/s 605 mmHg 47%
    19:00 +4°C° 0 mm 1 m/s 605 mmHg 48%
    20:00 +4°C° 0 mm 1 m/s 605 mmHg 50%
    21:00 +3°C° 0 mm 1 m/s 605 mmHg 51%
    22:00 +3°C° 0 mm 1 m/s 605 mmHg 51%
    23:00 +3°C° 0 mm 1 m/s 605 mmHg 52%

    28 Outubro, Domingo

    Tempo Temperatura Precipitação Vento Pressão Humidade
    00:00 +2°C° 0 mm 1 m/s 605 mmHg 52%
    01:00 +2°C° 0 mm 1 m/s 605 mmHg 52%
    02:00 +2°C° 0 mm 1 m/s 605 mmHg 52%
    03:00 +2°C° 0 mm 1 m/s 605 mmHg 52%
    04:00 +1°C° 0 mm 1 m/s 605 mmHg 52%
    05:00 +1°C° 0 mm 1 m/s 605 mmHg 52%
    06:00 +1°C° 0 mm 1 m/s 605 mmHg 52%
    07:00 +3°C° 0 mm 1 m/s 606 mmHg 47%
    08:00 +4°C° 0 mm 0 m/s 607 mmHg 43%
    09:00 +6°C° 0 mm 0 m/s 608 mmHg 39%
    10:00 +8°C° 0 mm 1 m/s 608 mmHg 36%
    11:00 +9°C° 0 mm 1 m/s 608 mmHg 34%
    12:00 +10°C° 0 mm 1 m/s 608 mmHg 32%
    13:00 +10°C° 0 mm 1 m/s 608 mmHg 31%
    14:00 +11°C° 0 mm 1 m/s 608 mmHg 29%
    15:00 +11°C° 0 mm 1 m/s 608 mmHg 28%
    16:00 +9°C° 0 mm 1 m/s 607 mmHg 32%
    17:00 +8°C° 0 mm 1 m/s 607 mmHg 36%
    18:00 +6°C° 0 mm 1 m/s 606 mmHg 39%
    19:00 +6°C° 0 mm 1 m/s 606 mmHg 39%
    20:00 +5°C° 0 mm 1 m/s 606 mmHg 40%
    21:00 +5°C° 0 mm 1 m/s 606 mmHg 40%
    22:00 +4°C° 0 mm 1 m/s 606 mmHg 40%
    23:00 +4°C° 0 mm 1 m/s 606 mmHg 40%

    29 Outubro, Segunda-feira

    Tempo Temperatura Precipitação Vento Pressão Humidade
    00:00 +4°C° 0 mm 1 m/s 606 mmHg 40%
    01:00 +3°C° 0 mm 1 m/s 606 mmHg 40%
    02:00 +3°C° 0 mm 1 m/s 606 mmHg 40%
    03:00 +3°C° 0 mm 1 m/s 605 mmHg 40%
    04:00 +3°C° 0 mm 1 m/s 605 mmHg 40%
    05:00 +2°C° 0 mm 1 m/s 605 mmHg 40%
    06:00 +2°C° 0 mm 1 m/s 605 mmHg 40%
    07:00 +4°C° 0 mm 1 m/s 606 mmHg 37%
    08:00 +7°C° 0 mm 1 m/s 608 mmHg 33%
    09:00 +9°C° 0 mm 1 m/s 609 mmHg 30%
    10:00 +10°C° 0 mm 1 m/s 609 mmHg 29%
    11:00 +11°C° 0 mm 1 m/s 609 mmHg 28%
    12:00 +12°C° 0 mm 1 m/s 609 mmHg 27%
    13:00 +12°C° 0 mm 1 m/s 609 mmHg 26%
    14:00 +12°C° 0 mm 1 m/s 609 mmHg 25%
    15:00 +13°C° 0 mm 1 m/s 609 mmHg 25%
    16:00 +11°C° 0 mm 1 m/s 608 mmHg 28%
    17:00 +9°C° 0 mm 1 m/s 607 mmHg 32%
    18:00 +7°C° 0 mm 1 m/s 607 mmHg 36%
    19:00 +7°C° 0 mm 1 m/s 607 mmHg 36%
    20:00 +6°C° 0 mm 1 m/s 607 mmHg 37%
    21:00 +6°C° 0 mm 1 m/s 607 mmHg 38%
    22:00 +6°C° 0 mm 1 m/s 606 mmHg 38%
    23:00 +5°C° 0 mm 1 m/s 606 mmHg 39%
    Mostrar mais